To NAV CANADA Home Page Login to a new session Search on AWWS site Feedback and Comments Disclaimer Vers la page française équivalente Tips FAQ What's new on the site To the Forecasts and Observations / NOTAM section To "File a Flight Plan" website Publications and other links Update of the User's profile FIC Telephone Numbers My Weather Data Folder Route Weather Data Regional Weather Data Local Weather Data To the Forecasts and Observations / NOTAM section
Request Generated 06/30/2015 at 12:48:00 UTC . Weather information available at that time is displayed.

METAR/TAF

FARO/YT    

LWIS CZFA 301200Z AUTO 17002KT 11/11 A3000=
LWIS CZFA 301100Z AUTO 36002KT 11/11 A2999=
LWIS CZFA 301000Z AUTO VRB02KT 11/11 A2998=

*** REMARK        : Forecast period has ended; this was the last TAF issued
*** REMARQUE : La période de prévision est échue; ceci était le dernier TAF qui a été émis
TAF AMD CZFA 291841Z 2918/3001 VRB03KT P6SM SCT080 BKN120 TEMPO
2918/2923 P6SM -SHRA BKN070
FM292300 12005KT P6SM -SHRA SCT060 BKN080 OVC100 PROB30 2923/3001
VRB15G25KT 5SM TSRA BKN060CB
RMK NXT FCST WILL BE ISSUED AT 301445Z=
Your time UTC time
Weather data provided by Environment Canada and NAV CANADA